Regional Weather Roundup
Issued by NWS

Home | Current Version | Previous Version | Graphics & Text | Print | Product List | Glossary On
Versions: 1 2 3 4 5 6 7 8 9 10 11 12 13 14 15 16 17 18 19 20 21 22 23 24 25 26 27 28 29 30 31 32 33 34 35 36 37 38 39 40 41 42 43 44 45 46 47 48 49 50
583
ASUS43 KBIS 140810
RWRND

NORTH DAKOTA REGIONAL WEATHER ROUNDUP
NATIONAL WEATHER SERVICE BISMARCK ND
200 AM CST SUN FEB 14 2016

NOTE: "FAIR" INDICATES FEW OR NO CLOUDS BELOW 12,000 FEET WITH NO
SIGNIFICANT WEATHER AND/OR OBSTRUCTIONS TO VISIBILITY.


NDZ001>003-009>011-017-140900-
NORTHWEST NORTH DAKOTA

CITY           SKY/WX    TMP DP  RH WIND       PRES   REMARKS
WILLISTON      CLOUDY    30  27  88 W6        29.79F
MINOT          CLOUDY    20  14  77 S6        29.74F WCI  12
MINOT AFB      CLOUDY    18  18 100 CALM      29.74S
$$

NDZ018>021-031>035-040>046-140900-
SOUTHWEST NORTH DAKOTA

CITY           SKY/WX    TMP DP  RH WIND       PRES   REMARKS
BISMARCK       CLOUDY    20  17  88 S3        29.79F FOG
DICKINSON      CLOUDY    31  29  92 NW23G32   29.76S WCI  18
GARRISON         N/A     21  20  96 NW6       29.75F WCI  13
HETTINGER ARPT CLOUDY    35  31  85 NW30G37   29.80S
$$

NDZ004>008-012>016-024-026-027-054-140900-
NORTHEAST NORTH DAKOTA

CITY           SKY/WX    TMP DP  RH WIND       PRES   REMARKS
GRAND FORKS    LGT SNOW  13   7  77 S20G26    29.98F WCI  -5
GRND FRKS AFB  CLOUDY    10   7  85 S21       29.96F BLWGSNOWWCI  -9
DEVILS LAKE    LGT SNOW  12   9  85 S16       29.84F FOG     WCI  -4
$$

NDZ022-023-025-028>030-036>039-047>053-140900-
SOUTHEAST NORTH DAKOTA

CITY           SKY/WX    TMP DP  RH WIND       PRES   REMARKS
FARGO          CLOUDY    14   5  67 S24       30.01F WCI  -5
JAMESTOWN      LGT SNOW  13   9  84 S18       29.85F FOG     WCI  -4
$$





USA.gov is the U.S. government's official web portal to all federal, state and local government web resources and services.